Tegel Arpt/Berlin, Germany

5:19 AM CET on February 23, 2017 (GMT +0100)
Tegel

Weather History for EDDT - January, 2013

Change the Weather History Date:

Tuesday, January 1, 2013

  Actual Average Record
Temperature  
Mean Temperature 44 °F -  
Max Temperature 46 °F 37 °F 51 °F (2012)
Min Temperature 41 °F 28 °F -4 °F (1997)
Degree Days  
Heating Degree Days 22    
Moisture  
Dew Point 38 °F    
Average Humidity 78    
Maximum Humidity 100    
Minimum Humidity 62    
Precipitation  
Precipitation 0.03 in - - ()
Sea Level Pressure  
Sea Level Pressure 29.66 in    
Wind  
Wind Speed 10 mph ()    
Max Wind Speed 16 mph    
Max Gust Speed -    
Visibility 8.7 miles    
Events Rain    
Averages and records for this station are not official NWS values.
T = Trace of Precipitation, MM = Missing Value Source: Averaged Metar Reports

Daily Weather History Graph

Daily Weather History Graph

Search for Another Location

Airport or City:

Trip Planner

Search our weather history database for the weather conditions in past years. The results will help you decide how hot, cold, wet, or windy it might be!

Date:

Astronomy

Jan. 01, 2013 Rise Set
Actual Time 8:17 AM CET 4:03 PM CET
Civil Twilight 7:36 AM CET 4:44 PM CET
Nautical Twilight 6:52 AM CET 5:28 PM CET
Astronomical Twilight 6:10 AM CET 6:10 PM CET
Moon 8:53 PM CET (1/1) 9:48 AM CET (1/1)
Length of Visible Light 9h 08m
Length of Day
7h 45m
Waning Gibbous, 85% of the Moon is Illuminated
Jan 1
Waning Gibbous
Jan 5
Last Quarter
Jan 11
New
Jan 19
First Quarter
Jan 27
Full

Hourly Weather History & Observations

Time (CET) Temp. Windchill Dew Point Humidity Pressure Visibility Wind Dir Wind Speed Gust Speed Precip Events Conditions
12:00 AM 43 °F - 36 °F 69% 29.76 in 25 mi South 8.9 mph - -   Scattered Clouds
12:20 AM 42.8 °F 36.6 °F 35.6 °F 76% 29.74 in - South 11.5 mph - N/A   Clear
12:50 AM 42.8 °F 37.0 °F 35.6 °F 76% 29.71 in - South 10.4 mph - N/A   Clear
1:00 AM 43 °F - 36 °F 69% 29.73 in 7 mi South 8.9 mph - -   Scattered Clouds
1:20 AM 42.8 °F 37.0 °F 35.6 °F 76% 29.71 in - South 10.4 mph - N/A   Clear
1:50 AM 42.8 °F 37.5 °F 35.6 °F 76% 29.68 in - South 9.2 mph - N/A   Clear
2:00 AM 42 °F - 36 °F 72% 29.70 in 9 mi South 8.9 mph - -   Scattered Clouds
2:20 AM 42.8 °F 36.6 °F 35.6 °F 76% 29.68 in - South 11.5 mph - N/A   Clear
2:50 AM 42.8 °F 37.0 °F 35.6 °F 76% 29.68 in - South 10.4 mph - N/A   Clear
3:00 AM 42 °F - 36 °F 71% 29.69 in 14 mi South 8.9 mph - -   Scattered Clouds
3:20 AM 42.8 °F 38.6 °F 35.6 °F 76% 29.68 in - South 6.9 mph - N/A   Clear
3:50 AM 42.8 °F 38.0 °F 35.6 °F 76% 29.65 in 6.2 mi SSW 8.1 mph - N/A   Mostly Cloudy
4:00 AM 43 °F - 36 °F 68% 29.67 in 16 mi SSW 8.9 mph - -   Mostly Cloudy
4:20 AM 42.8 °F 37.5 °F 35.6 °F 76% 29.65 in 6.2 mi South 9.2 mph - N/A   Mostly Cloudy
4:50 AM 42.8 °F 38.0 °F 35.6 °F 76% 29.65 in - South 8.1 mph - N/A   Clear
5:20 AM 42.8 °F 37.5 °F 35.6 °F 76% 29.62 in - South 9.2 mph - N/A   Clear
5:50 AM 42.8 °F 37.0 °F 35.6 °F 76% 29.62 in - SSW 10.4 mph - N/A   Clear
6:00 AM 43 °F - 36 °F 67% 29.64 in 17 mi SSW 8.9 mph - -   Scattered Clouds
6:20 AM 42.8 °F 37.5 °F 35.6 °F 76% 29.62 in 6.2 mi South 9.2 mph - N/A   Mostly Cloudy
6:50 AM 42.8 °F 37.5 °F 35.6 °F 76% 29.62 in - South 9.2 mph - N/A   Clear
7:00 AM 43 °F - 35 °F 66% 29.63 in 16 mi South 8.9 mph - -   Overcast
7:20 AM 42.8 °F 37.5 °F 35.6 °F 76% 29.62 in - South 9.2 mph - N/A   Clear
7:50 AM 42.8 °F 37.0 °F 35.6 °F 76% 29.62 in - SSW 10.4 mph - N/A   Clear
8:00 AM 43 °F - 35 °F 65% 29.63 in 19 mi SSW 8.9 mph - -   Scattered Clouds
8:20 AM 42.8 °F 37.5 °F 35.6 °F 76% 29.62 in - SSW 9.2 mph - N/A   Clear
8:50 AM 44.6 °F 39.2 °F 35.6 °F 71% 29.62 in 6.2 mi SSW 10.4 mph - N/A   Mostly Cloudy
9:00 AM 44 °F - 35 °F 62% 29.63 in 22 mi SSW 8.9 mph - -   Partly Cloudy
9:20 AM 44.6 °F 39.2 °F 35.6 °F 71% 29.62 in 6.2 mi SSW 10.4 mph - N/A   Mostly Cloudy
9:50 AM 44.6 °F 39.2 °F 35.6 °F 71% 29.62 in 6.2 mi SSW 10.4 mph - N/A   Mostly Cloudy
10:00 AM 44 °F - 35 °F 63% 29.63 in 22 mi SSW 8.9 mph - -   Scattered Clouds
10:20 AM 44.6 °F 38.8 °F 35.6 °F 71% 29.62 in 6.2 mi SSW 11.5 mph - N/A Rain Light Rain
10:50 AM 44.6 °F 37.8 °F 37.4 °F 76% 29.62 in 6.2 mi SW 15.0 mph - N/A Rain Light Rain
11:00 AM 45 °F - 38 °F 67% 29.64 in 19 mi SW 15.7 mph - - Rain Light Rain
11:20 AM 44.6 °F 38.1 °F 37.4 °F 76% 29.62 in 6.2 mi SW 13.8 mph - N/A Rain Light Rain
11:50 AM 44.6 °F 37.8 °F 37.4 °F 76% 29.62 in 6.2 mi SW 15.0 mph - N/A Rain Light Rain
12:00 PM 45 °F - 38 °F 68% 29.63 in 16 mi SW 15.7 mph - - Rain Light Rain
12:20 PM 44.6 °F 37.8 °F 39.2 °F 81% 29.62 in 6.2 mi SW 15.0 mph - N/A   Mostly Cloudy
12:50 PM 46.4 °F 39.8 °F 37.4 °F 71% 29.62 in 6.2 mi SW 16.1 mph - N/A   Mostly Cloudy
1:00 PM 46 °F - 38 °F 65% 29.63 in 22 mi SW 15.7 mph - - Rain Light Rain
1:20 PM 46.4 °F 39.8 °F 37.4 °F 71% 29.62 in 6.2 mi SW 16.1 mph - N/A   Mostly Cloudy
1:50 PM 46.4 °F 39.8 °F 37.4 °F 71% 29.62 in 6.2 mi SW 16.1 mph - N/A   Mostly Cloudy
2:00 PM 46 °F - 38 °F 63% 29.63 in 25 mi SW 15.7 mph - -   Mostly Cloudy
2:20 PM 46.4 °F 40.4 °F 37.4 °F 71% 29.62 in 6.2 mi SW 13.8 mph - N/A   Mostly Cloudy
2:50 PM 46.4 °F 40.4 °F 37.4 °F 71% 29.62 in 6.2 mi SW 13.8 mph - N/A   Mostly Cloudy
3:00 PM 46 °F - 38 °F 65% 29.63 in 25 mi SW 13.4 mph - -   Mostly Cloudy
3:20 PM 46.4 °F 40.4 °F 39.2 °F 76% 29.62 in 6.2 mi SW 13.8 mph - N/A Rain Light Rain
3:50 PM 44.6 °F 38.8 °F 39.2 °F 81% 29.62 in 6.2 mi SW 11.5 mph - N/A Rain Light Rain
4:00 PM 45 °F - 40 °F 75% 29.64 in 19 mi SW 11.2 mph - - Rain Light Rain
4:20 PM 44.6 °F 38.4 °F 41.0 °F 87% 29.65 in 6.2 mi SW 12.7 mph - N/A Rain Light Rain
4:50 PM 44.6 °F 39.7 °F 41.0 °F 87% 29.65 in 6.2 mi SSW 9.2 mph - N/A Rain Light Rain
5:00 PM 44 °F - 41 °F 83% 29.65 in 9 mi SW 8.9 mph - - Rain Light Rain
5:20 PM 44.6 °F 39.2 °F 41.0 °F 87% 29.65 in 6.2 mi SSW 10.4 mph - N/A Rain Light Rain
5:50 PM 42.8 °F 36.6 °F 41.0 °F 93% 29.65 in 6.2 mi SSW 11.5 mph - N/A Rain Light Rain
6:00 PM 44 °F - 41 °F 86% 29.66 in 9 mi SSW 11.2 mph - - Rain Light Rain
6:20 PM 42.8 °F 36.6 °F 41.0 °F 93% 29.65 in 6.2 mi SW 11.5 mph - N/A Rain Light Rain
6:50 PM 42.8 °F 36.6 °F 41.0 °F 93% 29.65 in 6.2 mi SW 11.5 mph - N/A Rain Light Rain
7:00 PM 44 °F - 42 °F 89% 29.67 in 8 mi SW 11.2 mph - - Rain Light Rain
7:20 PM 42.8 °F 37.0 °F 41.0 °F 93% 29.68 in 6.2 mi SW 10.4 mph - N/A Rain Light Rain
7:50 PM 42.8 °F 37.0 °F 41.0 °F 93% 29.68 in 6.2 mi SW 10.4 mph - N/A Rain Light Rain
8:00 PM 44 °F - 42 °F 89% 29.68 in 11 mi SW 11.2 mph - - Rain Light Rain
8:20 PM 42.8 °F 36.6 °F 42.8 °F 100% 29.68 in 6.2 mi WSW 11.5 mph - N/A Rain Light Rain
8:50 PM 44.6 °F 38.8 °F 42.8 °F 93% 29.71 in 6.2 mi WSW 11.5 mph - N/A Rain Light Rain
9:00 PM 44 °F - 42 °F 89% 29.70 in 12 mi WSW 11.2 mph - - Rain Light Rain
9:20 PM 42.8 °F 35.8 °F 42.8 °F 100% 29.71 in 6.2 mi West 13.8 mph - N/A Rain Light Rain
9:50 PM 42.8 °F 36.6 °F 41.0 °F 93% 29.71 in 6.2 mi West 11.5 mph - N/A   Mostly Cloudy
10:00 PM 44 °F - 42 °F 88% 29.73 in 14 mi West 11.2 mph - - Rain Light Rain
10:20 PM 42.8 °F 36.6 °F 41.0 °F 93% 29.74 in 6.2 mi West 11.5 mph - N/A   Mostly Cloudy
10:50 PM 41.0 °F 34.7 °F 39.2 °F 93% 29.77 in 6.2 mi WNW 10.4 mph - N/A Rain Light Rain
11:00 PM 42 °F - 38 °F 83% 29.77 in 17 mi WNW 8.9 mph - - Rain Light Rain
11:20 PM 41.0 °F 35.2 °F 39.2 °F 93% 29.80 in 6.2 mi West 9.2 mph - N/A Rain Light Rain
11:50 PM 41.0 °F 35.2 °F 37.4 °F 87% 29.80 in 6.2 mi West 9.2 mph - N/A Rain Light Rain